User: anonymous   Login
Location: Unspecified
(0.0000°N, 0.0000°E)
Time: 07:16:39
(UTC+00:00)
Language:

Nova 1 - Orbit

View from above orbital plane
View from above orbital plane
View from above satellite
View from above satellite

Ground track
Ground track

The orbit data is extracted from the following two-line orbital elements,

1 12458U 81044A   17178.82216019 +.00000048 +00000-0 +94319-4 0  9992
2 12458 089.9577 121.4007 0014088 351.9741 035.7845 13.22962999743270
Epoch (UTC): 27 June 2017 19:43:54
Eccentricity: 0.0014088
inclination: 89.9577°
perigee height: 1163 km
apogee height: 1184 km
right ascension of ascending node: 121.4007°
argument of perigee: 351.9741°
revolutions per day: 13.22962999
mean anomaly at epoch: 35.7845°
orbit number at epoch: 74327

The dashed part of the orbit path shows where the satellite is in the earth's shadow,  

DLR